• In Kazakhstan
  • List of Countries
  • For 7 days
  • Water Temperature
  • Satellite Maps
  • Weather Map
  • News
  • Weather Widgets
  • user-avatar
    Login

    Hourly Weather Dobrzanka

    Today, 19 April, Friday

    Time Temperature Precipitation Wind Pressure Humidity
    00:00 +7°C° 0 mm 1 mps 736 mmHg 78%
    01:00 +7°C° 0 mm 1 mps 736 mmHg 80%
    02:00 +6°C° 0 mm 1 mps 736 mmHg 82%
    03:00 +6°C° 0 mm 1 mps 736 mmHg 84%
    04:00 +5°C° 0 mm 1 mps 736 mmHg 86%
    05:00 +7°C° 0 mm 1 mps 736 mmHg 82%
    06:00 +7°C° 0 mm 2 mps 736 mmHg 78%
    07:00 +8°C° 0 mm 2 mps 736 mmHg 74%
    08:00 +10°C° 0 mm 3 mps 736 mmHg 65%
    09:00 +12°C° 0 mm 4 mps 736 mmHg 56%
    10:00 +14°C° 0 mm 5 mps 737 mmHg 47%
    11:00 +14°C° 0 mm 5 mps 737 mmHg 45%
    12:00 +14°C° 0 mm 5 mps 737 mmHg 43%
    13:00 +15°C° 0 mm 5 mps 737 mmHg 41%
    14:00 +14°C° 0 mm 5 mps 736 mmHg 42%
    15:00 +14°C° 0 mm 5 mps 736 mmHg 43%
    16:00 +14°C° 0 mm 4 mps 736 mmHg 43%
    17:00 +12°C° 0 mm 4 mps 736 mmHg 50%
    18:00 +10°C° 0 mm 3 mps 736 mmHg 57%
    19:00 +8°C° 0 mm 2 mps 736 mmHg 64%
    20:00 +8°C° 0 mm 1 mps 737 mmHg 66%
    21:00 +7°C° 0 mm 1 mps 737 mmHg 67%
    22:00 +5°C° 0 mm 0 mps 737 mmHg 69%
    23:00 +5°C° 0 mm 0 mps 737 mmHg 69%

    Tomorrow, 20 April, Saturday

    Time Temperature Precipitation Wind Pressure Humidity
    00:00 +4°C° 0 mm 0 mps 737 mmHg 69%
    01:00 +4°C° 0 mm 0 mps 737 mmHg 70%
    02:00 +4°C° 0 mm 0 mps 736 mmHg 70%
    03:00 +4°C° 0 mm 0 mps 736 mmHg 71%
    04:00 +3°C° 0 mm 0 mps 736 mmHg 71%
    05:00 +6°C° 0 mm 1 mps 736 mmHg 67%
    06:00 +8°C° 0 mm 1 mps 736 mmHg 62%
    07:00 +10°C° 0 mm 1 mps 736 mmHg 57%
    08:00 +11°C° 0 mm 1 mps 736 mmHg 53%
    09:00 +13°C° 0 mm 2 mps 736 mmHg 49%
    10:00 +15°C° 0 mm 2 mps 736 mmHg 45%
    11:00 +15°C° 0 mm 2 mps 735 mmHg 44%
    12:00 +15°C° 0 mm 2 mps 735 mmHg 43%
    13:00 +16°C° 0 mm 2 mps 734 mmHg 42%
    14:00 +16°C° 0 mm 2 mps 734 mmHg 44%
    15:00 +15°C° 0 mm 1 mps 734 mmHg 45%
    16:00 +15°C° 0 mm 1 mps 733 mmHg 46%
    17:00 +14°C° 0 mm 1 mps 733 mmHg 51%
    18:00 +12°C° 0 mm 1 mps 733 mmHg 55%
    19:00 +11°C° 0 mm 1 mps 733 mmHg 60%
    20:00 +10°C° 0 mm 0 mps 733 mmHg 61%
    21:00 +9°C° 0 mm 0 mps 732 mmHg 63%
    22:00 +9°C° 0 mm 0 mps 732 mmHg 65%
    23:00 +8°C° 0 mm 0 mps 732 mmHg 67%

    Day after tomorrow, 21 April, Sunday

    Time Temperature Precipitation Wind Pressure Humidity
    00:00 +8°C° 0 mm 0 mps 732 mmHg 68%
    01:00 +8°C° 0 mm 0 mps 732 mmHg 70%
    02:00 +7°C° 0 mm 0 mps 731 mmHg 74%
    03:00 +7°C° 0 mm 1 mps 731 mmHg 77%
    04:00 +7°C° 0 mm 1 mps 731 mmHg 81%
    05:00 +8°C° 0 mm 1 mps 731 mmHg 76%
    06:00 +9°C° 0 mm 1 mps 731 mmHg 72%
    07:00 +10°C° 0 mm 1 mps 731 mmHg 67%
    08:00 +10°C° 0.1 mm 2 mps 731 mmHg 64%
    09:00 +12°C° 0.1 mm 2 mps 731 mmHg 61%
    10:00 +13°C° 0.1 mm 3 mps 731 mmHg 57%
    11:00 +13°C° 0.5 mm 3 mps 730 mmHg 58%
    12:00 +13°C° 0.5 mm 3 mps 730 mmHg 59%
    13:00 +13°C° 0.5 mm 3 mps 730 mmHg 60%
    14:00 +13°C° 0.8 mm 3 mps 729 mmHg 63%
    15:00 +13°C° 0.8 mm 3 mps 729 mmHg 66%
    16:00 +13°C° 0.8 mm 2 mps 729 mmHg 69%
    17:00 +12°C° 0.5 mm 2 mps 729 mmHg 74%
    18:00 +10°C° 0.5 mm 1 mps 728 mmHg 80%
    19:00 +8°C° 0.5 mm 0 mps 728 mmHg 85%
    20:00 +7°C° 0 mm 0 mps 728 mmHg 86%
    21:00 +8°C° 0 mm 1 mps 729 mmHg 86%
    22:00 +7°C° 0 mm 1 mps 729 mmHg 87%
    23:00 +7°C° 0 mm 1 mps 729 mmHg 87%

    22 April, Monday

    Time Temperature Precipitation Wind Pressure Humidity
    00:00 +7°C° 0 mm 1 mps 729 mmHg 88%
    01:00 +6°C° 0 mm 1 mps 728 mmHg 88%
    02:00 +6°C° 0 mm 1 mps 728 mmHg 89%
    03:00 +6°C° 0 mm 1 mps 728 mmHg 89%
    04:00 +6°C° 0 mm 1 mps 728 mmHg 89%
    05:00 +7°C° 0 mm 1 mps 729 mmHg 85%
    06:00 +9°C° 0 mm 1 mps 729 mmHg 81%
    07:00 +10°C° 0 mm 1 mps 729 mmHg 78%
    08:00 +12°C° 0.2 mm 1 mps 729 mmHg 71%
    09:00 +13°C° 0.2 mm 2 mps 729 mmHg 65%
    10:00 +15°C° 0.2 mm 2 mps 729 mmHg 59%
    11:00 +15°C° 0.5 mm 2 mps 729 mmHg 60%
    12:00 +14°C° 0.5 mm 3 mps 729 mmHg 61%
    13:00 +14°C° 0.5 mm 3 mps 729 mmHg 62%
    14:00 +14°C° 0.6 mm 3 mps 729 mmHg 65%
    15:00 +14°C° 0.6 mm 3 mps 728 mmHg 68%
    16:00 +13°C° 0.6 mm 3 mps 728 mmHg 71%
    17:00 +12°C° 0.4 mm 3 mps 728 mmHg 76%
    18:00 +12°C° 0.4 mm 2 mps 728 mmHg 81%
    19:00 +10°C° 0.4 mm 2 mps 728 mmHg 86%
    20:00 +9°C° 0 mm 2 mps 729 mmHg 88%
    21:00 +9°C° 0 mm 2 mps 729 mmHg 89%
    22:00 +8°C° 0 mm 2 mps 729 mmHg 90%
    23:00 +7°C° 0 mm 2 mps 729 mmHg 90%

    23 April, Tuesday

    Time Temperature Precipitation Wind Pressure Humidity
    00:00 +7°C° 0 mm 2 mps 729 mmHg 89%
    01:00 +7°C° 0 mm 2 mps 729 mmHg 89%
    02:00 +6°C° 0 mm 2 mps 729 mmHg 89%
    03:00 +6°C° 0 mm 2 mps 729 mmHg 89%
    04:00 +5°C° 0 mm 2 mps 729 mmHg 89%
    05:00 +7°C° 0 mm 2 mps 729 mmHg 84%
    06:00 +8°C° 0 mm 3 mps 729 mmHg 79%
    07:00 +9°C° 0 mm 3 mps 729 mmHg 74%
    08:00 +11°C° 0 mm 3 mps 729 mmHg 66%
    09:00 +13°C° 0 mm 4 mps 730 mmHg 57%
    10:00 +15°C° 0 mm 4 mps 730 mmHg 48%
    11:00 +17°C° 0 mm 4 mps 729 mmHg 47%
    12:00 +16°C° 0 mm 5 mps 729 mmHg 45%
    13:00 +17°C° 0 mm 5 mps 729 mmHg 44%
    14:00 +17°C° 0 mm 4 mps 729 mmHg 47%
    15:00 +16°C° 0 mm 3 mps 729 mmHg 51%
    16:00 +16°C° 0 mm 3 mps 728 mmHg 55%
    17:00 +13°C° 0 mm 3 mps 728 mmHg 58%
    18:00 +12°C° 0 mm 3 mps 728 mmHg 62%
    19:00 +10°C° 0 mm 3 mps 728 mmHg 66%
    20:00 +9°C° 0 mm 3 mps 728 mmHg 68%
    21:00 +8°C° 0 mm 2 mps 728 mmHg 69%
    22:00 +7°C° 0 mm 2 mps 728 mmHg 71%
    23:00 +7°C° 0 mm 2 mps 728 mmHg 72%

    24 April, Wednesday

    Time Temperature Precipitation Wind Pressure Humidity
    00:00 +7°C° 0 mm 2 mps 728 mmHg 72%
    01:00 +7°C° 0 mm 2 mps 728 mmHg 73%
    02:00 +6°C° 0 mm 2 mps 728 mmHg 74%
    03:00 +6°C° 0 mm 2 mps 728 mmHg 74%
    04:00 +6°C° 0 mm 2 mps 728 mmHg 75%
    05:00 +8°C° 0 mm 2 mps 729 mmHg 70%
    06:00 +9°C° 0 mm 3 mps 729 mmHg 66%
    07:00 +11°C° 0 mm 3 mps 730 mmHg 61%
    08:00 +12°C° 0 mm 3 mps 730 mmHg 58%
    09:00 +14°C° 0 mm 3 mps 730 mmHg 55%
    10:00 +16°C° 0 mm 3 mps 730 mmHg 51%
    11:00 +17°C° 0 mm 3 mps 730 mmHg 51%
    12:00 +18°C° 0 mm 3 mps 730 mmHg 50%
    13:00 +18°C° 0 mm 2 mps 730 mmHg 49%
    14:00 +18°C° 0 mm 2 mps 730 mmHg 50%
    15:00 +19°C° 0 mm 2 mps 730 mmHg 51%
    16:00 +19°C° 0 mm 3 mps 730 mmHg 52%
    17:00 +17°C° 0 mm 2 mps 730 mmHg 62%
    18:00 +14°C° 0 mm 2 mps 730 mmHg 71%
    19:00 +12°C° 0 mm 1 mps 730 mmHg 81%
    20:00 +12°C° 0 mm 1 mps 730 mmHg 82%
    21:00 +11°C° 0 mm 1 mps 730 mmHg 83%
    22:00 +10°C° 0 mm 1 mps 730 mmHg 85%
    23:00 +9°C° 0 mm 2 mps 730 mmHg 84%
    Show more